"Pseudo-MPEC" for P115XZI

Created 2020 Sep 17 0:07:20 UT using Find_Orb

Click here for an explanation of pseudo-MPECs

 
 Astrometry: 
     P115XZI  C2020 09 14pHt-?vDD;p0@jx-;$u,yLAstrometry\1redacted;bA8clickB0F51
     P115XZI  C2020 09 14t0ZB_h[f:w7J='H$vL]?kv'24$vbhV^MxT/hereeH`Vr#7t(3!\JF51
     P115XZI  C2020 09 14[iLlK8Z)4vqDZECiTb7ndqU^SB9imt+\wa81j-bKBan1oVcNfZ]%F51
     P115XZI ^C2020 09 15.35763400 19 40.024-04 21 33.34   ~9F9q 21.48GVNEOCP568
     P115XZI ^C2020 09 15.35859100 19 40.343-04 21 29.31   ~9F9q 21.56GVNEOCP568
     P115XZI ^C2020 09 15.35954200 19 40.662-04 21 25.30   ~9F9q 21.54GVNEOCP568
     P115XZI ^C2020 09 15.36049000 19 40.981-04 21 21.31   ~9F9q 21.61GVNEOCP568
     P115XZI  C2020 09 16.35435 00 25 20.22 -03 16 51.7    ~9G97 22.0 GVNEOCPV06
     P115XZI  C2020 09 16.35880 00 25 21.45 -03 16 35.3    ~9G97 21.5 GVNEOCPV06
     P115XZI  C2020 09 16.36326 00 25 22.67 -03 16 19.3    ~9G97 21.8 GVNEOCPV06
     P115XZI  C2020 09 16.36771 00 25 23.91 -03 16 03.2    ~9G97 22.0 GVNEOCPV06
     P115XZI  C2020 09 16h%WLm=/mnJ,;23W7U+@3;CvC/0hx`a02TMu!uFa!;tiLeDDq?1fbF51
     P115XZI  C2020 09 16-dKqDfor:J*UZqcald\lL8a'ge%16DB#,)A2!e%p[9gD3.6ZZNA4F51
     P115XZI  C2020 09 16//5t63=explanationmtF4,!2ZJGskks$Sd^48ZC7=m$4`x[O*6OF51

Station data:
(568) Mauna Kea  (N19.826116 W155.472200)  US/Hawaii.
(F51) Pan-STARRS 1, Haleakala  (N20.707235 W156.255910)  US/Hawaii.
   Observers N. Primak, A. Schultz, S. Watters, J. Thiel, T. Goggia. Measurer
   PS1 Science Consortium. 1.8-m Ritchey-Chrétien + CCD.
(V06) Catalina Sky Survey-Kuiper  (N32.416847 W110.732550)  US/Arizona.
   Observers T. A. Pruyne, B. M. Africano, E. J. Christensen, G. A. Farneth,
   D. C. Fuls, A. R. Gibbs, A. D. Grauer, H. Gröller, J. A. Johnson, R. A.
   Kowalski, S. M. Larson, G. J. Leonard, D. Rankin, R. L. Seaman, F. C.
   Shelly. 1.55-m reflector + CCD.

Orbital elements:  P115XZI
   Perihelion 2020 Aug 15.550497 +/- 0.00714 TT = 13:12:43 (JD 2459077.050497)
Epoch 2020 Sep 16.0 TT = JDT 2459108.5   Earth MOID: 0.0035   Ma: 0.0037
M   7.55460448 +/- 0.08             (J2000 ecliptic)          AutoNEOCP
n   0.24021379 +/- 0.00271          Peri.  232.41171 +/- 0.18
a   2.56293396 +/- 0.0193           Node    83.84202 +/- 0.16
e   0.6135880 +/- 0.00296           Incl.    0.37823 +/- 0.0013
P   4.10                   H 27.0   G  0.15   U  8.8  
q 0.99034838 +/- 0.00016    Q 4.13551955 +/- 0.0392
From 14 observations 2020 Sept. 14-16 (46.8 hr); mean residual 0".15
Residuals in arcseconds: 
200914 F51  .15+  .17+    200915 568  .03-  .07+    200916 V06  .06-  .22-    
200914 F51  .13+  .00     200915 568  .02-  .08+    200916 F51  .36-  .12+    
200914 F51  .24-  .28-    200916 V06  .18+  .21-    200916 F51  .19+  .17+    
200915 568  .00   .04+    200916 V06  .11+  .03+    200916 F51  .12+  .13+    
200915 568  .03-  .05+    200916 V06  .14-  .17-    

Ephemerides (geocentric):
Date (UTC) HH   RA              Dec         delta   r     elong  mag " sig PA
---- -- -- --  -------------   -----------  ------ ------ -----  --- ---- ---
2020 09 17 00  00 28 36.764   -02 38 32.53  .07774 1.0812 167.6 22.3 .558  26
2020 09 17 01  00 28 48.731   -02 36 15.73  .07798 1.0814 167.6 22.3 .586  28
2020 09 17 02  00 29 00.622   -02 33 59.76  .07822 1.0816 167.6 22.3 .615  29
2020 09 17 03  00 29 12.435   -02 31 44.61  .07846 1.0819 167.6 22.3 .644  30
2020 09 17 04  00 29 24.172   -02 29 30.27  .07870 1.0821 167.6 22.4 .674  31
2020 09 17 05  00 29 35.834   -02 27 16.73  .07893 1.0823 167.5 22.4 .705  31
2020 09 17 06  00 29 47.421   -02 25 03.99  .07917 1.0825 167.5 22.4 .737  32
2020 09 17 07  00 29 58.934   -02 22 52.04  .07941 1.0827 167.5 22.4 .769  33
2020 09 17 08  00 30 10.374   -02 20 40.88  .07965 1.0830 167.5 22.4 .801  34
2020 09 17 09  00 30 21.740   -02 18 30.49  .07989 1.0832 167.5 22.4 .834  34
2020 09 17 10  00 30 33.034   -02 16 20.88  .08013 1.0834 167.5 22.4 .868  35
2020 09 17 11  00 30 44.257   -02 14 12.03  .08037 1.0836 167.5 22.4 .902  35
2020 09 17 12  00 30 55.408   -02 12 03.94  .08061 1.0838 167.5 22.4 .937  36
2020 09 17 13  00 31 06.489   -02 09 56.61  .08085 1.0841 167.5 22.4 .972  36
2020 09 17 14  00 31 17.500   -02 07 50.02  .08109 1.0843 167.5 22.4 1.01  37
2020 09 17 15  00 31 28.442   -02 05 44.18  .08132 1.0845 167.5 22.4 1.04  37
2020 09 17 16  00 31 39.315   -02 03 39.07  .08156 1.0847 167.4 22.4 1.08  38
2020 09 17 17  00 31 50.120   -02 01 34.69  .08180 1.0849 167.4 22.4 1.12  38
2020 09 17 18  00 32 00.857   -01 59 31.04  .08205 1.0852 167.4 22.5 1.15  38
2020 09 17 19  00 32 11.528   -01 57 28.11  .08229 1.0854 167.4 22.5 1.19  39
2020 09 17 20  00 32 22.131   -01 55 25.88  .08253 1.0856 167.4 22.5 1.23  39
2020 09 17 21  00 32 32.669   -01 53 24.37  .08277 1.0858 167.4 22.5 1.27  39
2020 09 17 22  00 32 43.142   -01 51 23.56  .08301 1.0861 167.4 22.5 1.31  40
2020 09 17 23  00 32 53.549   -01 49 23.44  .08325 1.0863 167.4 22.5 1.35  40
2020 09 18 00  00 33 03.892   -01 47 24.01  .08349 1.0865 167.4 22.5 1.39  40
2020 09 18 01  00 33 14.171   -01 45 25.27  .08373 1.0867 167.4 22.5 1.43  41
2020 09 18 02  00 33 24.388   -01 43 27.21  .08397 1.0869 167.4 22.5 1.47  41
2020 09 18 03  00 33 34.541   -01 41 29.83  .08421 1.0872 167.4 22.5 1.51  41
2020 09 18 04  00 33 44.632   -01 39 33.11  .08446 1.0874 167.4 22.5 1.55  41
2020 09 18 05  00 33 54.661   -01 37 37.06  .08470 1.0876 167.4 22.5 1.59  42
2020 09 18 06  00 34 04.629   -01 35 41.67  .08494 1.0878 167.4 22.5 1.63  42
2020 09 18 07  00 34 14.536   -01 33 46.93  .08518 1.0881 167.4 22.5 1.67  42
2020 09 18 08  00 34 24.383   -01 31 52.84  .08542 1.0883 167.4 22.5 1.71  42
2020 09 18 09  00 34 34.170   -01 29 59.40  .08567 1.0885 167.3 22.6 1.76  42
2020 09 18 10  00 34 43.897   -01 28 06.59  .08591 1.0887 167.3 22.6 1.80  42
2020 09 18 11  00 34 53.566   -01 26 14.42  .08615 1.0890 167.3 22.6 1.84  43
2020 09 18 12  00 35 03.176   -01 24 22.88  .08640 1.0892 167.3 22.6 1.88  43
2020 09 18 13  00 35 12.729   -01 22 31.96  .08664 1.0894 167.3 22.6 1.93  43
2020 09 18 14  00 35 22.224   -01 20 41.66  .08688 1.0896 167.3 22.6 1.97  43
2020 09 18 15  00 35 31.661   -01 18 51.98  .08713 1.0899 167.3 22.6 2.01  43
2020 09 18 16  00 35 41.043   -01 17 02.91  .08737 1.0901 167.3 22.6 2.06  43
2020 09 18 17  00 35 50.368   -01 15 14.44  .08761 1.0903 167.3 22.6 2.10  43
2020 09 18 18  00 35 59.637   -01 13 26.58  .08786 1.0906 167.3 22.6 2.15  44
2020 09 18 19  00 36 08.851   -01 11 39.31  .08810 1.0908 167.3 22.6 2.19  44
2020 09 18 20  00 36 18.011   -01 09 52.63  .08834 1.0910 167.3 22.6 2.23  44
2020 09 18 21  00 36 27.116   -01 08 06.54  .08859 1.0912 167.3 22.6 2.28  44
2020 09 18 22  00 36 36.167   -01 06 21.03  .08883 1.0915 167.3 22.6 2.32  44
2020 09 18 23  00 36 45.164   -01 04 36.11  .08908 1.0917 167.3 22.6 2.37  44